Location: ???? ?????????
(31.1304°N, 31.7111°E)
Time: 15:58:20
(UTC+00:00)

Transit 2A Rocket - Visible Passes

Search period start: 26 February 2021 00:00
Search period end: 08 March 2021 00:00
Orbit: 594 x 909 km, 66.7° (Epoch: 25 February)

Date Brightness Start Highest point End Pass type
(mag) Time Alt. Az. Time Alt. Az. Time Alt. Az.
26 Feb 7.8 01:20:50 10° NE 01:20:50 10° NE 01:20:51 10° NE visible
26 Feb 6.9 03:00:46 12° NNW 03:00:46 12° NNW 03:01:27 10° NNW visible
27 Feb 7.2 02:19:42 12° N 02:19:42 12° N 02:20:03 10° N visible
